Regional Weather Roundup
Issued by NWS Wakefield, VA

Home | Current Version | Previous Version | Text Only | Print | Product List | Glossary Off
Versions: 1 2 3 4 5 6 7 8 9 10 11 12 13 14 15 16 17 18 19 20 21 22 23 24 25 26 27

000
ASUS41 KAKQ 231016
RWRAKQ

REGIONAL WEATHER ROUNDUP
NATIONAL WEATHER SERVICE WAKEFIELD VA
600 AM EDT SAT SEP 23 2017

Note: "fair" indicates few or no clouds below 12,000 feet with no
significant weather and/or obstructions to visibility. * = Denotes
station may not report precipitation (e.g., rain,snow,etc.),
thunder or fog.

VAZ042-051-052>054-056-231100-
NORTHERN VIRGINIA

CITY           SKY/WX    TMP DP  RH WIND       PRES   REMARKS
WASH NATIONAL  PTCLDY    65  59  81 N7        30.06R
DULLES         PTCLDY    60  60 100 CALM      30.07R
FORT BELVOIR   PTCLDY    60  59  96 CALM      30.06R
QUANTICO         N/A     65  64  97 NW6       30.06R
FREDERICKSBRG* CLEAR     61  61 100 NW3       30.05R
STAFFORD*      CLEAR     57  57 100 N5        30.10R FOG
WARRENTON      FOG       53  51  91 CALM      30.07R VSB 1/4
CULPEPER*      CLOUDY    59  59 100 N3        30.08R FOG
MANASSAS*      CLOUDY    55  55 100 CALM      30.08R FOG
LEESBURG*      PTCLDY    61  61 100 CALM      30.08R
WINCHESTER       N/A     54  54 100 CALM      30.09S FOG
FRONT ROYAL*   MOSUNNY   57  57 100 CALM      30.09R
LURAY*         MOSUNNY   55  55 100 CALM      30.11R
$$

VAZ048-049-060>072-079>083-231100-
CENTRAL AND SOUTH CENTRAL VIRGINIA

CITY           SKY/WX    TMP DP  RH WIND       PRES   REMARKS
RICHMOND       CLEAR     63  63 100 NW3       30.03R
CHESTERFIELD*  NOT AVBL
PETERSBURG*    CLEAR     56  56 100 CALM      30.04R FOG
HANOVER        CLEAR     59  59 100 CALM      30.05R FOG
TAPPAHANNOCK*  CLEAR    N/A N/A N/A CALM      30.04R
QUINTON*       FAIR      58  58 100 CALM      30.03R
CHARLOTTSVILLE PTCLDY    63  61  93 N3        30.07R FOG
GORDONSVILLE*  FOG       59  59 100 CALM      30.06R VSB 3/4
ORANGE*        CLEAR     59  59 100 CALM      30.07R
LOUISA*        CLEAR     63  61  94 CALM      30.06R
BUMPASS*         N/A     61  61 100 W6        30.06R VSB 1
FARMVILLE*     FOG       60  60 100 CALM      30.04S VSB 1/2
CREWE*         FAIR      60  60 100 CALM      30.04R
FORT PICKETT*    N/A     61  61 100 CALM      30.05R VSB 1/2
CHASE CITY*    FAIR      61  61 100 CALM      30.05R
CLARKSVILLE*   FAIR      61  61 100 CALM      30.04R
SOUTH HILL*    CLEAR     57  57 100 CALM      30.09S
LAWRENCEVILLE* PTSUNNY   57  56  97 CALM      30.04R
EMPORIA*         N/A     57  57 100 CALM      30.04S FOG
$$

VAZ088>098-231100-
SOUTHEAST VIRGINIA

CITY           SKY/WX    TMP DP  RH WIND       PRES   REMARKS
NORFOLK        CLEAR     69  68  96 CALM      30.00S
VIRGINIA BEACH PTCLDY    66  63  90 SW3       29.99S
NORFOLK NAVAL  CLEAR     69  66  90 NW6       30.02R
WEST POINT*    NOT AVBL
SALUDA*        FAIR      66  66 100 NW5       30.02R
NEWPORT NEWS   CLEAR     63  62  97 CALM      30.02R
LANGLEY AFB    CLEAR     67  65  94 NW5       30.01R
FORT EUSTIS    CLEAR     68  65  92 NW7       29.99R
WILLIAMSBURG*  CLEAR     64  64 100 CALM      30.03R
HR EXEC AP*    FOG       56  56 100 CALM      30.02S VSB 1/2
FRANKLIN*      FOG       57  57  98 CALM      30.03R VSB 1/4
US460-WAKEFLD  CLEAR     60  59  96 CALM      30.02R
$$

VAZ020-022-025-037-045-231100-
WEST CENTRAL AND SOUTHWEST VIRGINIA

CITY           SKY/WX    TMP DP  RH WIND       PRES   REMARKS
STAUNTON*      FOG       56  56 100 CALM      30.13R VSB 1/4
WAYNESBORO*    SUNNY     57  57 100 CALM      30.11R
HOT SPRINGS VA CLEAR     64  52  64 CALM      30.21R
LYNCHBURG      CLEAR     62  62 100 CALM      30.07S
DANVILLE       CLEAR     60  60 100 CALM      30.06R FOG
SOUTH BOSTON*  FAIR      59  58  96 CALM      30.05R
MARTINSVILLE   CLOUDY    61  60  98 CALM      30.09S FOG
ROANOKE        CLEAR     63  61  93 CALM      30.10S
BLACKSBURG     PTCLDY    61  61 100 CALM      30.15S FOG
DUBLIN*        FOG       62  62 100 CALM      30.14R VSB 1/2
MARION*          N/A     60  58  90 CALM      30.17R FOG
HILLSVILLE*    CLEAR     63  59  87 CALM      30.14R FOG
RICHLANDS*     FAIR      63  61  93 N3        30.15R
WISE*          MOCLDY    66  59  77 CALM      30.16R
ABINGDON*      PTCLDY    64  63  96 SE3       30.12R
$$

MDZ021>025-VAZ099-100-231100-
SOUTHERN MARYLAND AND THE DELMARVA PENINSULA

CITY           SKY/WX    TMP DP  RH WIND       PRES   REMARKS
PATUXENT RIVER CLEAR     66  63  90 N5        30.02R
BAY BRIDGE APT CLEAR     70  61  73 N5        30.04R
LEONARDTOWN    CLEAR     63  61  94 CALM      30.04S
DOVER          CLEAR     63  57  79 N7        30.01R
GEORGETOWN     NOT AVBL
EASTON         CLEAR     64  59  82 N3        30.07R
CAMBRIDGE      CLEAR     63  61  94 CALM      30.02R
SALISBURY      CLEAR     63  63 100 CALM      30.01R
OCEAN CITY     CLEAR     63  62  97 NW3       30.00R
WALLOPS ISLAND CLEAR     65  63  93 NW5       30.01R
ACCOMACK*      FOG       64  64  99 N3        30.01R VSB 1/2
$$

NCZ012>017-030>032-231100-
NORTH CENTRAL AND EASTERN NORTH CAROLINA

CITY           SKY/WX    TMP DP  RH WIND       PRES   REMARKS
ROANOKE RAPIDS FOG       59  59 100 CALM      30.03S VSB 1/2
RALEIGH        PTCLDY    62  62 100 CALM      30.04R FOG
ELIZABETH CITY PTCLDY    65  65 100 CALM      30.01S
AHOSKIE*       CLEAR     60  60 100 CALM      30.02S
EDENTON*       PTCLDY    63  61  91 CALM      30.01S
CURRITUCK*     PTCLDY    64  64  97 CALM      30.01S
KILL DEVIL HLS PTCLDY    67  65  94 CALM      29.99R
MANTEO         PTCLDY    63  62  97 CALM      30.00S
CAPE HATTERAS  PTCLDY    70  69  97 E3        29.99S
TARBORO*       NOT AVBL
GOLDSBORO      CLEAR     66  66 100 CALM      30.00R FOG
WASHINGTON     CLEAR     65  64  97 CALM      30.01R FOG
GREENVILLE     HVY RAIN  63  63 100 CALM      30.03S VSB 1/4
NEW BERN       CLEAR     67  67 100 CALM      30.01R
WILMINGTON     PTCLDY    68  67  96 CALM      30.00R FOG
$$

VAZ048-231100-
ELSEWHERE

CITY           SKY/WX    TMP DP  RH WIND       PRES   REMARKS
HARRISBURG PA  MOCLDY    63  59  87 NW6       30.06R
BALTIMORE      PTCLDY    61  57  87 CALM      30.05R
ANNAPOLIS      CLEAR     68  64  87 W3        30.04R
ANDREWS AFB    PTCLDY    61  53  76 N7        30.05R
PHILADELPHIA   PTCLDY    68  51  54 N6        30.03R
HENDERSON NC     N/A     58  58  98 CALM      30.04S FOG
GREENSBORO     PTCLDY    67  66  97 N3        30.06R
ROCKY MOUNT    FOG       63  63 100 CALM      30.03R VSB 1/4
$$

VAZ100-231100-
MARINE

STATION/POSITION TIME  TEMP    WIND        PRES    WAVE   SWELL
                       AIR SEA DIR/SP/G            HT/PER HT/PER
                 (UTC) (F)     (DEG/KT/KT) (MB)    (FT/S) (FT/S)
BRANDYWINE LGT   0942   73      30/ 18/ 20 1016.0R
CAPE MAY NJ      0948   69 73   30/  5/ 10 1015.3R
LEWES DE         0942   73 73   CALM  /  1 1015.9R
15NM E FENWICK I 0950   72 71  360/ 14/ 17 1015.6R   6/ 9   5/ 9
OCEAN-CITY-INLET 0948   71 74   10/  6/  7 1016.2R
WACHAPREAGUE VA  0948   69 75  340/  3/  5 1016.0R
THOMAS POINT MD  1000   69 76  320/  8/  9   N/A
GOOSES REEF MD   1000   74 75   30/ 10/ 12 1017.5    3
COVE POINT MD    0948   74      20/  8/ 11 1017.4R
SOLOMONS ISLAND  0942   70 76  330/  4/  5 1016.3R
BISHOPS HEAD MD  0948   71 76  350/  3/  5 1016.6R
PINEY POINT MD   0948          350/  7/  8   N/A
POTOMAC MD       1000   75 76   40/  8/ 10 1015.9    0
CAMBRIDGE MD     0942   69 76              1017.3R
LEWISETTA VA     0948   72 77  360/  3/  5 1016.5R
RAPPAHANNOCK LGT 0948          330/  9/ 10 1016.7R
STINGRAY PT      1000   71 76  340/  8/ 10 1016.6
YORK RVR RNG VA  0948   70     330/  7/  8 1016.5R
YORKTOWN VA      0948   69 76  290/  5/  6 1015.9R
JAMESTOWN VA     1000      78  340/  6/  8   N/A     0
DOMINION TERM VA 0948   73     320/  6/  8 1016.2R
KIPTOPEKE VA     0942      75  330/ 10/ 12   N/A
CHES BAY BRIDGE  0948   72 76  320/ 10/ 11 1015.8R
CAPE HENRY VA    0948   71     280/  6/  8   N/A
WILLOUBY STN VA  0942   71     320/  7/  8 1016.0R
S CRANEY ISL VA  0948   68     260/  3/  4 1015.8R
CAPE HENRY BUOY  1000      75                N/A     4/11   3/11
1ST LANDING BUOY 1000   73 75              1015.9    2/ 6
64NM E OF VA BCH 0950   70 69  280/  6/  8 1015.7R   9/11   8/11
DUCK PIER NC     0948   74 76  280/  4/  5 1015.5R
44100 DUCK FRF   0935      74                N/A     6/11   5/11
44056 DUCK FRF   1000      75                N/A     6/14   5/14
OREGON INLET NC  0942   72 78  100/  1/  1 1015.7R
HATTERAS NC      0942   76 79  230/  3/  4 1015.4R
DIAMOND SHLS NC  0950   75 76   50/  2/  4 1015.5R   7/13   7/13
CAPE LOOKOUT NC  1000   75     310/  4/  5 1015.7R
$$




USA.gov is the U.S. government's official web portal to all federal, state and local government web resources and services.